Find Starlink 34118

NORAD ID: 63900 Int'l Des: 2025-095 Owner: SPXS Country: US Constellation: starlink operational
LEOCIRCULAR

現在のビュー

3D地球を読み込み中...

About Starlink 34118

Starlink 34118 (NORAD 63900) is a starlink constellation satellite (v2 mini) launched May 10, 2025 by SPXS of US. It operates in LEO, CIRCULAR orbit with a mass of 575.00 kg.

次回通過

Passes for default location (London). Set your location on the main map for personalized predictions.

高度履歴

Loading altitude history...

軌道要素

1 63900U 25095L 26263.39824019 .00010229 00000-0 38062-3 0 9990
2 63900 42.9995 156.8035 0001209 268.5853 91.4860 15.27588412 77561
Epoch: Sep 20, 2026 • Age: 20 hours

現在のステータス

高度 488.0 km
遠地点 / 近地点 N/A
速度 7.62 km/s
衛星直下点 -23.37°S, 37.41°E
打ち上げ日 May 10, 2025
運用期間 1.3 years
タイプ internet

技術仕様

分類 Payload
質量 575.00 kg
乾燥質量 530.00 kg
長さ 0.30 m
スパン 29.00 m
形状 ? Box + pan
製造者 SPXS
バスタイプ Starlink V2MO
フェーズステータス In Orbit
所有者/国 SPXS/US

Most Searched